CDT,Max TemperatureF,Mean TemperatureF,Min TemperatureF,Max Dew PointF,MeanDew PointF,Min DewpointF,Max Humidity, Mean Humidity, Min Humidity, Max Sea Level PressureIn, Mean Sea Level PressureIn, Min Sea Level PressureIn, Max VisibilityMiles, Mean VisibilityMiles, Min VisibilityMiles, Max Wind SpeedMPH, Mean Wind SpeedMPH, Max Gust SpeedMPH,PrecipitationIn, CloudCover, Events, WindDirDegrees
2013-8-1,100,86,72,63,55,46,66,38,16,29.99,29.91,29.83,10,10,10,15,6,23,0.00,0,,130
2013-8-2,102,88,73,54,48,39,48,28,12,29.86,29.81,29.73,10,10,10,15,8,23,0.00,0,,169
2013-8-3,105,90,75,57,52,46,48,29,14,29.85,29.81,29.75,10,10,10,20,12,26,0.00,1,,141
2013-8-4,100,88,75,67,57,50,66,37,19,29.91,29.85,29.77,10,10,10,17,12,25,0.00,0,,140
2013-8-5,104,90,77,62,56,46,58,36,15,29.88,29.81,29.70,10,10,10,17,11,25,0.00,0,,150
2013-8-6,105,92,79,59,55,48,48,34,16,29.92,29.77,29.72,10,10,10,21,11,31,0.00,0,Thunderstorm,188
2013-8-7,97,84,70,62,57,52,61,44,23,29.96,29.80,29.75,10,10,10,23,7,38,0.07,1,Rain-Thunderstorm,229
2013-8-8,100,85,70,63,53,42,70,40,14,29.93,29.77,29.68,10,10,10,13,6,22,0.00,0,Thunderstorm,216
2013-8-9,100,84,70,62,57,50,68,41,24,29.98,29.86,29.75,10,10,10,21,11,34,0.00,1,Rain-Thunderstorm,83
2013-8-10,95,83,73,63,59,51,66,46,30,30.08,29.99,29.92,10,10,10,20,10,25,0.00,1,,62
2013-8-11,95,84,72,64,60,54,71,47,27,30.03,29.95,29.88,10,10,10,14,7,20,0.00,1,,122
2013-8-12,97,85,73,65,59,54,73,44,23,29.97,29.91,29.83,10,10,10,13,8,18,0.00,0,,141
2013-8-13,99,86,73,61,58,53,64,40,22,29.93,29.87,29.81,10,10,10,15,9,21,0.00,0,,118
2013-8-14,95,84,73,65,57,51,71,42,25,30.03,29.91,29.84,10,10,10,24,11,32,0.00,0,,68
2013-8-15,99,85,73,64,60,54,73,47,23,29.99,29.91,29.81,10,10,10,13,7,20,0.00,1,,104
2013-8-16,93,82,71,62,57,53,61,40,26,29.95,29.90,29.86,10,10,10,17,6,24,0.00,0,,100
2013-8-17,99,85,72,58,54,49,61,37,19,30.10,29.92,29.81,10,10,10,14,10,20,0.00,0,Rain-Thunderstorm,126
2013-8-18,102,86,73,61,51,46,55,34,16,30.01,29.88,29.80,10,10,10,23,10,31,0.00,0,Rain-Thunderstorm,144
2013-8-19,100,82,66,61,52,41,73,39,14,29.93,29.86,29.79,10,10,10,13,7,22,0.00,0,,142
2013-8-20,98,85,73,55,52,48,53,34,19,29.89,29.85,29.81,10,10,10,18,9,25,0.00,0,,148
2013-8-21,95,82,69,60,49,40,61,35,15,29.97,29.91,29.86,10,10,10,15,8,25,0.00,0,,135
2013-8-22,95,83,71,64,57,48,75,44,24,29.99,29.92,29.83,10,10,10,16,9,26,0.00,1,,132
2013-8-23,95,82,72,60,57,54,64,43,26,29.93,29.89,29.85,10,10,10,20,7,32,0.00,0,,150
2013-8-24,96,84,72,61,57,52,66,43,25,29.99,29.92,29.86,10,10,10,17,10,25,0.00,1,,133
2013-8-25,96,84,73,60,57,53,61,42,24,30.04,29.98,29.92,10,10,10,14,8,25,0.00,1,,129
2013-8-26,93,83,73,64,57,53,62,42,27,30.18,30.01,29.92,10,10,10,20,11,29,0.00,1,,113
2013-8-27,91,82,72,65,60,54,73,49,28,30.14,29.98,29.87,10,10,10,20,10,26,0.00,0,,134
2013-8-28,91,80,69,65,61,55,81,52,33,30.07,29.96,29.88,10,10,10,18,11,24,0.00,1,,140
2013-8-29,97,86,75,57,52,47,51,31,19,30.16,30.03,29.91,10,10,10,12,9,,0.00,0,,152
2013-8-30,99,88,78,57,49,43,43,25,15,30.12,30.03,29.94,10,10,10,15,9,21,0.00,0,,140
2013-8-31,100,84,69,56,50,46,53,29,16,30.02,29.86,29.74,10,10,10,15,8,25,0.00,0,,149